Cloud_Cover
0 0 0 0 0 0 0 0 0 0 5 0 3 0 19 100 100 100 100 93 82 5 47 52 64 52 57 1 0 0 9 21 19 18 22 34 43 100 100 100 100 100 93 100
0 0 0 0 0 0 0 0 0 1 4 0 2 0 0 19 99 100 100 81 96 13 100 61 6 97 99 45 0 4 2 21 5 5 17 5 100 82 100 100 100 82 70 100
0 0 0 0 0 0 0 0 0 0 0 0 0 0 0 0 0 6 0 4 100 98 39 100 100 65 44 80 1 0 0 4 5 85 12 9 86 100 100 100 100 100 96 100
0 0 0 0 0 0 0 0 0 0 0 0 0 0 0 0 4 1 0 28 100 100 6 85 100 100 60 100 4 0 3 0 2 44 22 5 40 52 100 100 100 100 100 100
0 0 0 0 0 4 0 0 0 0 0 0 0 0 0 0 1 0 0 2 90 10 5 100 69 29 100 100 96 0 17 3 0 5 14 5 38 86 85 25 97 96 98 64
0 0 0 0 0 0 3 1 0 0 0 0 4 0 4 4 5 0 29 2 33 100 16 26 50 87 69 60 100 31 74 3 11 15 4 13 5 32 69 6 46 100 99 84
0 0 0 0 0 0 0 0 0 1 0 2 3 0 0 89 50 2 9 40 100 92 52 44 6 5 68 17 96 95 6 82 76 100 5 15 5 16 47 5 5 21 97 100
0 0 0 0 0 0 0 0 0 0 0 4 0 1 81 0 0 96 37 99 97 16 100 99 12 2 33 98 100 100 100 100 100 44 5 45 52 22 100 9 5 41 19 99
0 0 0 0 0 0 2 1 0 0 0 0 0 5 5 2 1 6 48 100 100 55 98 90 28 58 20 98 80 83 49 99 100 100 22 83 100 69 100 100 46 5 7 75
0 4 0 0 0 0 5 9 3 2 0 0 0 4 21 18 3 19 76 75 100 99 93 95 91 90 57 5 76 99 84 100 100 54 33 100 100 77 95 100 100 68 5 5
0 0 2 0 0 0 4 5 4 0 5 5 0 2 5 43 11 2 4 14 81 100 100 88 67 98 18 32 77 73 100 53 84 70 15 93 64 91 23 88 100 100 48 5
0 0 4 0 35 3 10 5 64 14 5 5 5 4 70 11 30 5 0 0 5 94 100 100 100 19 56 12 24 5 100 89 25 27 5 5 90 97 5 5 91 100 75 7
10 3 0 5 91 99 88 14 99 100 97 21 5 80 3 11 5 65 24 4 3 33 100 100 59 60 5 5 14 12 5 90 100 96 5 5 74 100 40 5 5 15 44 36
3 5 5 3 20 100 100 100 100 100 100 74 6 67 0 1 5 5 100 87 4 5 96 100 49 7 58 5 95 98 100 35 33 70 14 2 4 5 5 5 5 5 17 7
4 0 0 4 5 8 99 100 78 100 98 100 42 7 7 0 0 5 38 100 5 9 100 100 95 27 6 32 63 82 100 6 25 38 64 11 5 5 5 5 5 5 5 41
100 100 52 0 0 3 96 100 100 86 87 99 100 6 5 0 5 5 5 5 56 68 85 100 100 100 100 78 100 79 5 99 22 5 23 100 8 6 83 5 5 5 8 98
11 19 62 0 0 0 2 100 100 100 100 100 100 97 0 1 78 26 5 0 5 84 100 100 100 93 78 85 95 0 67 8 47 25 71 69 99 93 71 91 28 100 47 86
0 9 33 0 5 5 3 11 100 100 83 89 38 99 89 0 98 4 1 0 0 5 19 100 100 97 5 5 10 5 2 89 100 69 46 86 78 98 100 100 100 100 57 48
0 0 0 0 0 0 1 6 80 87 100 21 6 24 9 5 0 5 81 3 0 0 4 5 51 50 0 3 1 0 10 94 7 78 85 90 71 90 97 98 100 100 93 97
0 0 0 0 0 0 0 2 65 20 4 98 6 1 5 11 2 8 26 5 42 1 5 0 8 34 14 12 5 0 0 0 0 0 16 7 87 72 55 62 100 100 99 99
1 0 0 0 0 0 0 0 0 17 5 97 19 0 4 85 31 24 19 100 42 59 83 1 86 88 100 8 2 0 0 0 0 0 0 0 1 3 42 88 5 69 5 5
5 86 38 5 3 0 0 0 0 0 5 84 80 0 0 64 16 4 1 40 99 31 5 4 7 100 100 6 0 0 0 0 0 0 0 0 5 0 3 0 1 12 5 5
1 4 25 50 5 5 4 5 0 0 0 1 0 0 0 26 6 5 5 11 100 77 0 4 55 74 54 11 5 5 4 5 53 80 5 6 10 7 10 4 0 0 0 0
5 5 4 4 13 11 5 5 21 7 4 0 0 0 0 10 5 2 5 55 69 8 6 5 20 83 76 30 13 66 99 55 56 65 84 100 99 98 70 67 4 0 0 0
16 9 11 100 92 59 5 60 100 100 19 5 0 0 0 0 5 0 5 5 99 34 63 83 100 100 90 44 77 17 5 62 98 100 100 100 99 69 49 45 22 0 0 13
5 48 98 14 100 5 39 100 100 100 82 10 0 0 0 0 4 0 5 54 100 56 100 99 100 100 100 99 14 9 3 4 5 82 89 100 80 5 4 5 5 95 93 100